Retour au catalogue

STARLINK-4293

ActifCommunicationsVLEO
NORAD 52989·PAYLOAD·🇺🇸 United States

Lancé Jul 7, 2022 depuis Cape Canaveral Space Force Station

Loading…

Prochains Passages (prochaines 24 heures)

TLE

FraisSource: CelesTrak SupGP

Époque: Sep 15, 2026, 02:21 UTC

1 52989C 22076D   26258.09840278  .00430760  00000+0  99140-3 0  2584
2 52989  53.2123 286.3638 0001828  74.1073  90.8080 15.96326196    12

Suivez STARLINK-4293 en temps réel avec AllMySat

Download on the App Store